Location: Unspecified
(0.0000°N, 0.0000°E)
Time: 20:27:03
(UTC+00:00)

N. Korean satellite - Pass Details

Date: 01 June 2023
Orbit: 364 x 379 km, 97.3° (Epoch: 04 June)

Event Time Altitude Azimuth Distance (km) Brightness Sun altitude
Rises 05:05:49 0° 16° (NNE) 2,244 10.5 -12.0°
Reaches altitude 10° 05:07:47 10° 20° (NNE) 1,394 9.5 -11.6°
Maximum altitude 05:10:43 58° 100° (E) 447 6.7 -10.9°
Drops below altitude 10° 05:13:39 10° 181° (S) 1,398 8.7 -10.2°
Sets 05:15:37 0° 185° (S) 2,251 9.7 -9.8°
